SCP
0 0 0 0 0 0 0 0 0 0 0 0 0 0 0 0 0 0 0 0 0 0 0 0 0 0 0 0 0 0 0 0 0 0 0 0 0 0 0 0 0 0 0 0
0 0 0 0 0 0 0 0 0 0 0 0 0 0 0 0 0 0 0 0 0 0 0 0 0 0 0 0 0 0 0 0 0 0 0 0 0 0 0 0 0 0 0 0
0 0 0 0 0 0 0 0 0 0 0 0 0 0 0 0 0 0 0 0 0 0 0 0 0 0 0 0 0 0 0 0 0 0 0 0 0 0 0 0 0 0 0 0
0 0 0 0 0 0 0 0 0 0 0 0 0 0 0 0 0 0 0 0 0 0 0 0 0 0 0 0 0 0 0 0 0 0 0 0 0 0 0 0 0 0 0 0
0 0 0 0 0 0 0 0 0 0 0 0 0 0 0 0 0 0 0 0 0 0 0 0 0 0 0 0 0 0 0 0 0 0 0 0 0 0 0 0 0 0 0 0
0 0 0 0 0 0 0 0 0 0 0 0 0 0 0 0 0 0 0 0 0 0 0 0 0 0 0 0 0 0 0 0 0 0 0 0 0 0 0 0 0 0 0 0
0 0 0 0 0 0 0 0 0 0 0 0 0 0 0 0 0 0 0 0 0 0 0 0 0 0 0 0 0 0 0 0 0 0 0 0 0 0 0 0 0 0 0 0
0 0 0 0 0 0 0 0 0 0 0 0 0 0 0 0 0 0 0 0 0 0 0 0 0 0 0 0 0 0 0 0 0 0 0 0 0 0 0 0 0 0 0 0
0 0 0 0 0 0 0 0 0 0 0 0 0 0 0 0 0 0 0 0 0 0 0 0 0 0 0 0 0 0 0 0 0 0 0 0 0 0 0 0 0 0 0 0
0 0 0 0 0 0 0 0 0 0 0 0 0 0 0 0 0 0 0 0 0 0 0 0 0 0 0 0 0 0 0 0 0 0 0 0 0 0 0 0 0 0 0 0
0 0 0 0 0 0 0 0 0 0 0 0 0 0 0 0 0 0 0 0 0 0 0 0 0 0 0 0 0 0 0 0 0 0 0 0 0 0 0 0 0 0 0 0
0 0 0 0 0 0 0 0 0 0 0 0 0 0 0 0 0 0 0 0 0 0 0 0 0 0 0 0 0 0 0 0 0 0 0 0 0 0 0 0 0 0 0 0
0 0 0 0 0 0 0 0 0 0 0 0 0 0 0 0 0 0 0 0 0 0 0 0 0 0 0 0 0 0 0 0 0 0 0 0 0 0 0 0 0 0 0 0
0 0 0 0 0 0 0 0 0 0 0 0 0 0 0 0 0 0 0 0 0 0 0 0 0 0 0 0 0 0 0 0 0 0 0 0 0 0 0 0 0 0 0 0
0 0 0 0 0 0 0 0 0 0 0 0 0 0 0 0 0 0 0 0 0 0 0 0 0 0 0 0 0 0 0 0 0 0 0 0 0 0 0 0 0 0 0 0
0 0 0 0 0 0 0 0 0 0 0 0 0 0 0 0 0 0 0 0 0 0 0 0 0 0 0 0 0 0 0 0 0 0 0 0 0 0 0 0 0 0 0 0
0 0 0 0 0 0 0 0 0 0 0 0 0 0 0 0 0 0 0 0 0 0 0 0 0 0 0 0 0 0 0 0 0 0 0 0 0 0 0 0 0 0 0 0
0 0 0 0 0 0 0 0 0 0 0 0 0 0 0 0 0 0 0 0 0 0 0 0 0 0 0 0 0 0 0 0 0 0 0 0 0 0 0 0 0 0 0 0
0 0 0 0 0 0 0 0 0 0 0 0 0 0 0 0 0 0 0 0 0 0 0 0 0 0 0 0 0 0 0 0 0 0 0 0 0 0 0 0 0 0 0 0
0 0 0 0 0 0 0 0 0 0 0 0 0 0 0 0 0 0 0 0 0 0 0 0 0 0 0 0 0 0 0 0 0 0 0 0 0 0 0 0 0 0 0 0
0 0 0 0 0 0 0 0 0 0 0 0 0 0 0 0 0 0 0 0 0 0 0 0 0 0 0 0 0 0 0 0 0 0 0 0 0 0 0 0 0 0 0 0
0 0 0 0 0 0 0 0 0 0 0 0 0 0 0 0 0 0 0 0 0 0 0 0 0 0 0 0 0 0 0 0 0 0 0 0 0 0 0 0 0 0 0 0
0 0 0 0 0 0 0 0 0 0 0 0 0 0 0 0 0 0 0 0 0 0 0 0 0 0 0 0 0 0 0 0 0 0 0 0 0 0 0 0 0 0 0 0
0 0 0 0 0 0 0 0 0 0 0 0 0 0 0 0 0 0 0 0 0 0 0 0 0 0 0 0 0 0 0 0 0 0 0 0 0 0 0 0 0 0 0 0
0 0 0 0 0 0 0 0 0 0 0 0 0 0 0 0 0 0 0 0 0 0 0 0 0 0 0 0 0 0 0 0 0 0 0 0 0 0 0 0 0 0 0 0
0 0 0 0 0 0 0 0 0 0 0 0 0 0 0 0 0 0 0 0 0 0 0 0 0 0 0 0 0 0 0 0 0 0 0 0 0 0 0 0 0 0 0 0
0 0 0 0 0 0 0 0 0 0 0 0 0 0 0 0 0 0 0 0 0 0 0 0 0 0 0 0 0 0 0 0 0 0 0 0 0 0 0 0 0 0 0 0
Wind_Speed
6 6 5 6 8 7 8 8 7 7 7 8 5 4 3 2 2 3 3 3 3 3 3 3 2 2 2 1 1 1 1 1 1 1 1 1 2 2 2 2 2 2 2 3
5 4 4 7 10 9 10 10 11 11 13 9 6 4 3 3 3 4 4 4 4 4 3 3 3 3 2 2 1 1 1 1 1 1 1 1 1 2 2 2 2 2 2 3
3 3 4 9 10 11 8 7 7 11 10 4 3 4 4 3 4 5 5 5 4 4 4 4 3 3 3 3 2 2 2 1 1 0 1 1 2 2 2 2 2 2 3 3
3 4 6 7 1 5 7 7 9 9 7 4 4 5 4 4 5 5 5 4 4 4 3 3 3 3 2 2 2 2 2 1 1 1 1 1 1 2 2 2 2 3 3 3
1 4 10 6 3 4 4 7 8 11 9 7 4 4 5 4 3 4 4 4 4 3 3 3 2 2 2 2 2 2 2 2 2 1 2 2 2 2 2 2 3 3 3 3
3 3 8 5 3 2 2 6 6 7 6 4 1 3 4 2 2 3 3 3 3 2 2 2 2 2 2 3 2 3 3 3 2 2 2 3 3 3 2 3 3 3 4 3
5 6 11 5 4 4 4 6 2 3 4 4 5 6 3 1 2 2 2 2 2 2 2 3 2 3 3 3 4 4 3 2 2 2 3 3 2 2 2 3 3 3 4 4
6 7 13 5 7 8 8 2 1 2 3 4 5 5 4 3 3 3 3 3 2 2 3 2 2 3 4 5 4 2 2 3 3 3 2 2 2 2 2 2 3 4 4 4
12 12 5 8 8 7 2 3 3 3 4 4 5 6 5 5 4 4 4 4 3 3 3 2 2 4 5 5 3 2 3 3 3 3 2 2 2 3 2 2 3 3 3 4
7 12 9 8 9 8 6 7 6 5 5 5 7 7 7 6 5 5 4 4 3 3 4 4 3 4 5 3 3 3 3 3 3 3 3 2 2 3 3 3 4 4 4 4
9 10 7 9 11 11 9 8 8 7 7 7 7 8 7 7 6 5 5 4 4 5 6 6 4 4 4 3 3 3 4 3 3 3 3 3 3 3 4 4 4 4 4 4
13 10 8 7 6 7 7 8 8 8 8 7 7 9 8 7 6 5 5 4 4 5 6 5 4 5 4 3 4 4 4 4 3 3 3 3 3 3 6 6 7 8 7 6
12 7 8 8 7 7 7 8 8 8 9 8 7 7 7 7 6 5 5 5 6 6 6 5 4 5 4 3 4 5 5 4 3 3 3 3 3 3 4 5 6 7 7 8
11 7 9 10 10 8 8 7 6 6 7 6 6 5 6 6 5 6 7 6 5 5 5 4 4 5 3 3 4 5 4 4 4 4 3 3 4 3 3 3 4 4 5 8
13 12 12 9 8 7 6 5 6 7 7 6 5 5 6 7 8 8 6 4 3 4 4 4 5 5 3 4 5 5 4 4 3 3 3 3 3 3 3 3 4 3 3 5
9 8 9 10 11 10 8 7 8 10 8 7 6 7 7 7 7 6 4 3 4 6 6 5 6 5 3 4 5 4 4 4 4 3 3 3 3 3 3 3 4 4 4 4
9 11 11 11 12 11 10 10 9 9 7 7 8 7 5 5 5 6 5 5 5 6 5 5 6 3 4 5 5 4 3 3 4 3 3 4 3 4 4 4 4 4 4 4
13 13 11 10 9 9 9 8 8 8 8 7 6 5 5 6 7 7 5 3 3 4 5 5 4 3 4 5 4 3 3 3 3 4 3 3 3 3 3 4 4 4 4 4
9 9 9 8 8 7 6 6 6 7 6 5 5 6 7 7 7 6 3 3 5 6 5 3 4 4 4 5 4 3 3 4 3 3 3 3 3 3 3 4 4 4 4 3
6 6 6 6 5 5 6 5 4 4 4 4 4 5 6 6 5 4 4 6 6 5 3 3 4 4 4 5 5 3 4 5 4 4 3 3 4 4 3 4 4 4 4 4
6 5 5 5 5 4 4 4 3 4 4 4 5 6 7 6 4 3 4 6 4 3 3 4 3 4 4 4 5 4 4 4 4 4 4 4 4 4 4 4 4 4 4 4
4 4 4 4 4 4 3 3 3 4 3 4 5 4 4 4 4 4 5 5 2 2 2 3 3 4 4 4 4 4 4 4 4 4 4 4 4 4 4 4 4 4 4 4
3 3 3 3 4 3 2 2 2 3 3 4 4 4 5 4 3 4 5 3 2 3 2 3 3 4 4 3 3 4 4 4 4 4 4 4 4 4 4 4 4 4 4 4
2 2 2 2 1 1 2 3 2 1 2 2 3 3 3 2 2 2 2 1 2 3 2 3 4 4 4 3 3 3 4 4 4 4 4 4 4 4 4 4 4 4 4 5
1 1 1 1 1 2 2 1 1 1 1 1 1 1 1 1 2 2 1 2 3 2 2 3 4 3 3 2 3 3 3 4 4 4 4 4 4 4 4 4 4 4 4 5
1 1 1 1 1 1 0 1 1 1 1 1 1 1 1 0 0 0 0 1 2 2 1 1 2 3 2 3 3 3 3 3 3 3 4 4 4 4 4 4 5 5 4 5
0 1 1 1 1 1 0 1 1 2 2 2 2 1 0 0 0 0 1 1 1 1 1 1 2 2 2 2 2 3 3 3 3 3 3 3 3 3 4 5 4 4 4 4
Wind_Direction
265 277 275 261 252 230 222 228 234 252 264 272 279 274 268 246 247 248 248 240 233 228 221 216 220 224 218 220 229 253 271 281 281 306 356 358 351 345 344 342 332 325 325 326
284 261 264 268 254 238 235 237 247 264 273 267 274 276 266 248 244 247 243 238 236 234 227 223 223 226 221 227 230 222 227 245 274 320 353 337 332 336 335 328 326 329 326 326
277 323 326 272 236 211 214 213 210 233 246 259 273 275 264 258 251 248 247 245 238 230 227 226 222 216 214 218 213 214 224 235 250 288 308 308 318 330 322 318 322 322 318 320
297 347 261 244 158 189 213 236 225 244 263 273 269 280 272 259 247 247 238 237 238 233 230 225 218 213 208 199 200 210 222 237 246 261 281 305 310 303 304 308 309 306 309 311
234 274 276 274 211 181 204 264 228 233 252 263 275 303 286 259 231 231 230 229 228 223 223 216 212 202 189 208 207 208 221 230 230 228 253 271 274 282 294 304 304 304 302 305
203 237 252 253 151 119 109 279 244 209 230 243 218 281 273 246 232 246 247 238 227 221 209 208 208 179 187 216 218 226 227 229 224 219 233 248 260 275 292 291 289 301 302 303
214 237 262 246 150 132 174 250 240 192 216 212 213 230 261 277 266 250 251 242 223 213 215 213 191 175 203 218 229 233 224 219 218 223 232 243 257 272 286 287 295 296 297 301
188 216 252 185 149 191 219 238 226 237 237 237 248 268 278 273 263 254 253 252 236 230 242 228 186 185 216 233 236 221 206 212 222 226 230 230 236 259 264 265 275 282 289 295
197 217 242 173 202 222 227 250 255 255 261 253 260 266 267 265 260 254 247 247 236 225 238 244 216 199 223 239 221 205 207 219 225 225 228 226 225 239 253 253 257 267 273 282
244 255 252 238 244 252 245 244 254 258 262 259 259 264 265 264 262 256 251 246 239 232 238 247 236 222 226 227 204 196 214 225 218 215 229 233 231 229 233 239 249 260 268 275
246 262 278 260 240 240 243 247 254 255 249 247 252 259 257 260 258 253 251 245 230 230 239 245 236 232 230 213 193 204 218 222 218 217 221 232 237 235 239 240 239 253 257 262
228 221 209 236 230 222 227 238 242 248 258 249 238 250 254 255 254 251 248 241 237 237 241 243 234 236 231 210 194 198 216 219 216 217 220 225 242 272 261 259 269 270 270 272
230 230 227 249 251 241 238 243 243 242 247 254 250 242 246 252 255 249 247 240 237 239 241 241 235 237 231 209 196 203 215 219 217 217 220 223 226 238 272 284 275 277 280 283
232 235 250 248 248 248 243 246 247 249 249 246 247 246 245 252 257 250 248 245 241 241 242 238 234 240 230 204 202 212 217 216 212 216 220 224 228 235 240 252 278 287 288 289
230 223 233 249 254 253 247 245 253 259 257 254 245 242 242 246 252 253 252 247 241 242 242 235 239 245 217 197 205 213 215 216 213 215 217 222 227 231 237 245 256 273 294 296
229 230 234 242 248 252 250 242 243 254 253 251 250 245 240 242 251 257 251 222 222 241 239 234 241 238 202 196 202 210 216 217 209 208 212 216 220 226 235 242 251 256 262 275
224 237 234 238 241 242 238 234 235 245 247 245 247 248 245 247 256 259 253 236 232 239 233 231 239 220 195 196 199 208 210 209 202 206 212 215 219 226 233 239 247 255 262 265
223 232 232 234 240 242 244 240 237 240 242 245 246 240 234 234 245 253 252 246 249 257 244 229 217 197 196 199 200 200 200 203 207 213 216 219 225 228 230 237 243 254 271 274
223 230 233 234 235 235 239 240 238 238 242 237 233 235 237 239 242 245 233 222 234 252 253 214 207 191 200 204 198 194 196 201 209 215 216 219 225 227 231 236 244 250 259 268
228 232 233 239 240 234 241 247 244 245 243 228 231 241 249 249 240 232 222 232 233 234 211 192 194 197 201 203 196 197 200 203 207 211 213 217 224 231 235 239 245 250 253 257
234 235 234 240 250 248 241 238 237 247 249 227 226 239 248 252 234 219 228 252 248 203 187 188 194 200 198 197 195 199 202 206 209 211 213 217 224 230 234 238 244 248 252 258
231 231 235 236 241 254 254 235 232 241 245 243 241 241 245 250 243 237 234 241 236 187 189 205 210 204 200 193 197 200 205 210 214 215 217 219 223 230 234 239 245 249 253 257
220 223 227 229 231 243 264 252 233 229 239 244 242 236 234 236 226 232 258 244 207 209 213 217 216 204 194 192 201 205 209 213 216 218 221 224 228 231 236 241 247 251 255 260
220 227 229 222 177 186 259 276 266 244 241 246 243 237 235 246 253 240 250 219 208 213 221 218 213 203 187 197 206 212 216 218 220 221 223 227 230 234 238 243 250 254 257 261
211 208 185 169 190 237 260 290 309 286 271 276 275 264 249 232 239 256 234 215 211 206 215 213 211 198 187 202 209 218 225 227 227 224 223 227 231 235 240 243 247 254 258 261
230 220 221 228 237 249 235 214 249 259 245 272 289 287 298 330 303 278 259 220 206 204 210 210 200 189 197 207 214 219 224 228 233 236 235 236 237 239 243 246 249 253 257 261
101 72 53 7 349 333 265 234 247 254 237 233 267 269 261 282 228 226 209 210 211 213 214 211 204 204 208 211 219 226 229 230 231 233 237 242 245 247 250 251 254 258 263 266